When you browse on this site, cookies collect data to enhance your experience and personalize the content and advertising you see.
Visit our Privacy Policy to learn more. By continuing to use the site, you agree to this use of cookies and data.
  • In Czech Republic
  • List of Countries
  • For 7 days
  • Water Temperature
  • Weather Map
  • Weather Widgets
  • user-avatar
    Login

    Hourly Weather La Rioja

    Today, 14 December, Saturday

    Time Temperature Precipitation Wind Pressure Humidity
    00:00 +26°C° 0 mm 2 mps 712 mmHg 45%
    01:00 +25°C° 0 mm 2 mps 712 mmHg 46%
    02:00 +25°C° 0 mm 2 mps 711 mmHg 52%
    03:00 +25°C° 0 mm 2 mps 711 mmHg 53%
    04:00 +24°C° 0 mm 2 mps 711 mmHg 54%
    05:00 +24°C° 0 mm 2 mps 711 mmHg 55%
    06:00 +25°C° 0 mm 2 mps 712 mmHg 51%
    07:00 +26°C° 0 mm 2 mps 712 mmHg 48%
    08:00 +27°C° 0 mm 3 mps 713 mmHg 45%
    09:00 +29°C° 0 mm 3 mps 712 mmHg 42%
    10:00 +30°C° 0 mm 3 mps 712 mmHg 38%
    11:00 +33°C° 0 mm 3 mps 712 mmHg 35%
    12:00 +34°C° 0 mm 3 mps 711 mmHg 33%
    13:00 +35°C° 0 mm 3 mps 710 mmHg 31%
    14:00 +36°C° 0 mm 3 mps 709 mmHg 30%
    15:00 +36°C° 0 mm 3 mps 709 mmHg 28%
    16:00 +36°C° 0 mm 3 mps 708 mmHg 27%
    17:00 +36°C° 0 mm 3 mps 707 mmHg 26%
    18:00 +35°C° 0.1 mm 3 mps 708 mmHg 30%
    19:00 +34°C° 0.1 mm 3 mps 709 mmHg 33%
    20:00 +32°C° 0.1 mm 2 mps 709 mmHg 37%
    21:00 +31°C° 0.2 mm 2 mps 709 mmHg 43%
    22:00 +30°C° 0.2 mm 2 mps 710 mmHg 50%
    23:00 +29°C° 0.2 mm 2 mps 710 mmHg 57%

    Tomorrow, 15 December, Sunday

    Time Temperature Precipitation Wind Pressure Humidity
    00:00 +28°C° 0.3 mm 3 mps 710 mmHg 61%
    01:00 +27°C° 0.3 mm 3 mps 710 mmHg 66%
    02:00 +26°C° 0.3 mm 3 mps 710 mmHg 71%
    03:00 +26°C° 0.3 mm 4 mps 711 mmHg 71%
    04:00 +25°C° 0.3 mm 5 mps 711 mmHg 70%
    05:00 +23°C° 0.3 mm 5 mps 712 mmHg 70%
    06:00 +25°C° 0 mm 5 mps 713 mmHg 65%
    07:00 +26°C° 0 mm 4 mps 713 mmHg 60%
    08:00 +27°C° 0 mm 3 mps 714 mmHg 56%
    09:00 +29°C° 0 mm 4 mps 714 mmHg 46%
    10:00 +30°C° 0 mm 5 mps 714 mmHg 36%
    11:00 +33°C° 0 mm 6 mps 714 mmHg 26%
    12:00 +34°C° 0 mm 6 mps 713 mmHg 25%
    13:00 +35°C° 0 mm 6 mps 712 mmHg 23%
    14:00 +36°C° 0 mm 6 mps 711 mmHg 21%
    15:00 +35°C° 0 mm 5 mps 711 mmHg 21%
    16:00 +35°C° 0 mm 4 mps 710 mmHg 21%
    17:00 +35°C° 0 mm 4 mps 710 mmHg 21%
    18:00 +34°C° 0 mm 3 mps 710 mmHg 23%
    19:00 +32°C° 0 mm 2 mps 710 mmHg 25%
    20:00 +31°C° 0 mm 2 mps 711 mmHg 27%
    21:00 +30°C° 0 mm 2 mps 711 mmHg 31%
    22:00 +29°C° 0 mm 3 mps 711 mmHg 35%
    23:00 +29°C° 0 mm 3 mps 711 mmHg 40%

    Day after tomorrow, 16 December, Monday

    Time Temperature Precipitation Wind Pressure Humidity
    00:00 +28°C° 0.1 mm 3 mps 711 mmHg 48%
    01:00 +27°C° 0.1 mm 2 mps 711 mmHg 56%
    02:00 +26°C° 0.1 mm 2 mps 710 mmHg 64%
    03:00 +26°C° 0.2 mm 2 mps 711 mmHg 66%
    04:00 +25°C° 0.2 mm 1 mps 711 mmHg 68%
    05:00 +25°C° 0.2 mm 1 mps 711 mmHg 70%
    06:00 +24°C° 1.4 mm 3 mps 712 mmHg 72%
    07:00 +22°C° 1.4 mm 5 mps 713 mmHg 74%
    08:00 +21°C° 1.4 mm 7 mps 713 mmHg 76%
    09:00 +20°C° 1.8 mm 7 mps 714 mmHg 80%
    10:00 +19°C° 1.8 mm 6 mps 714 mmHg 84%
    11:00 +16°C° 1.8 mm 6 mps 715 mmHg 88%
    12:00 +16°C° 0.9 mm 5 mps 715 mmHg 87%
    13:00 +17°C° 0.9 mm 4 mps 715 mmHg 86%
    14:00 +17°C° 0.9 mm 3 mps 715 mmHg 85%
    15:00 +18°C° 0 mm 2 mps 715 mmHg 78%
    16:00 +19°C° 0 mm 2 mps 715 mmHg 71%
    17:00 +20°C° 0 mm 2 mps 714 mmHg 64%
    18:00 +20°C° 0 mm 2 mps 715 mmHg 66%
    19:00 +19°C° 0 mm 2 mps 715 mmHg 68%
    20:00 +19°C° 0 mm 2 mps 716 mmHg 70%
    21:00 +20°C° 0 mm 1 mps 716 mmHg 69%
    22:00 +20°C° 0 mm 1 mps 716 mmHg 69%
    23:00 +20°C° 0 mm 1 mps 716 mmHg 68%

    17 December, Tuesday

    Time Temperature Precipitation Wind Pressure Humidity
    00:00 +20°C° 0 mm 1 mps 716 mmHg 69%
    01:00 +19°C° 0 mm 1 mps 715 mmHg 69%
    02:00 +17°C° 0 mm 0 mps 715 mmHg 70%
    03:00 +19°C° 0 mm 1 mps 715 mmHg 69%
    04:00 +19°C° 0 mm 1 mps 714 mmHg 68%
    05:00 +19°C° 0 mm 1 mps 714 mmHg 67%
    06:00 +20°C° 0 mm 1 mps 715 mmHg 60%
    07:00 +22°C° 0 mm 1 mps 715 mmHg 52%
    08:00 +24°C° 0 mm 1 mps 715 mmHg 45%
    09:00 +26°C° 0 mm 2 mps 715 mmHg 39%
    10:00 +28°C° 0 mm 2 mps 715 mmHg 34%
    11:00 +30°C° 0 mm 3 mps 715 mmHg 28%
    12:00 +32°C° 0 mm 4 mps 714 mmHg 25%
    13:00 +33°C° 0 mm 5 mps 713 mmHg 22%
    14:00 +34°C° 0 mm 5 mps 712 mmHg 19%
    15:00 +34°C° 0 mm 5 mps 711 mmHg 18%
    16:00 +34°C° 0 mm 5 mps 710 mmHg 18%
    17:00 +34°C° 0 mm 5 mps 710 mmHg 17%
    18:00 +33°C° 0 mm 5 mps 710 mmHg 20%
    19:00 +30°C° 0 mm 4 mps 710 mmHg 24%
    20:00 +29°C° 0 mm 4 mps 710 mmHg 27%
    21:00 +28°C° 0 mm 3 mps 710 mmHg 29%
    22:00 +27°C° 0 mm 3 mps 711 mmHg 32%
    23:00 +26°C° 0 mm 2 mps 711 mmHg 34%

    18 December, Wednesday

    Time Temperature Precipitation Wind Pressure Humidity
    00:00 +25°C° 0 mm 2 mps 711 mmHg 36%
    01:00 +25°C° 0 mm 1 mps 710 mmHg 37%
    02:00 +24°C° 0 mm 1 mps 710 mmHg 39%
    03:00 +24°C° 0 mm 1 mps 710 mmHg 40%
    04:00 +23°C° 0 mm 1 mps 710 mmHg 41%
    05:00 +23°C° 0 mm 2 mps 710 mmHg 42%
    06:00 +24°C° 0 mm 2 mps 710 mmHg 39%
    07:00 +26°C° 0 mm 3 mps 711 mmHg 37%
    08:00 +27°C° 0 mm 3 mps 711 mmHg 35%
    09:00 +28°C° 0 mm 3 mps 711 mmHg 32%
    10:00 +30°C° 0 mm 3 mps 711 mmHg 30%
    11:00 +31°C° 0 mm 3 mps 711 mmHg 28%
    12:00 +33°C° 0 mm 3 mps 710 mmHg 26%
    13:00 +35°C° 0 mm 3 mps 709 mmHg 24%
    14:00 +36°C° 0 mm 3 mps 708 mmHg 23%
    15:00 +36°C° 0 mm 4 mps 708 mmHg 23%
    16:00 +36°C° 0 mm 4 mps 707 mmHg 23%
    17:00 +37°C° 0 mm 5 mps 707 mmHg 23%
    18:00 +35°C° 0 mm 5 mps 707 mmHg 28%
    19:00 +34°C° 0 mm 5 mps 707 mmHg 32%
    20:00 +32°C° 0 mm 4 mps 707 mmHg 37%
    21:00 +32°C° 0 mm 4 mps 708 mmHg 38%
    22:00 +30°C° 0 mm 3 mps 708 mmHg 40%
    23:00 +29°C° 0 mm 2 mps 709 mmHg 41%

    19 December, Thursday

    Time Temperature Precipitation Wind Pressure Humidity
    00:00 +28°C° 0 mm 2 mps 709 mmHg 43%
    01:00 +28°C° 0 mm 3 mps 708 mmHg 44%
    02:00 +27°C° 0 mm 3 mps 708 mmHg 46%
    03:00 +26°C° 0 mm 3 mps 708 mmHg 47%
    04:00 +26°C° 0 mm 3 mps 708 mmHg 49%
    05:00 +25°C° 0 mm 4 mps 708 mmHg 51%
    06:00 +26°C° 0 mm 4 mps 708 mmHg 48%
    07:00 +27°C° 0 mm 4 mps 708 mmHg 45%
    08:00 +28°C° 0 mm 3 mps 709 mmHg 41%
    09:00 +30°C° 0 mm 3 mps 709 mmHg 38%
    10:00 +31°C° 0 mm 3 mps 708 mmHg 35%
    11:00 +34°C° 0 mm 3 mps 708 mmHg 32%
    12:00 +35°C° 0 mm 3 mps 707 mmHg 31%
    13:00 +36°C° 0 mm 3 mps 707 mmHg 29%
    14:00 +37°C° 0 mm 3 mps 706 mmHg 28%
    15:00 +37°C° 0 mm 2 mps 706 mmHg 26%
    16:00 +37°C° 0 mm 2 mps 705 mmHg 25%
    17:00 +38°C° 0 mm 2 mps 705 mmHg 24%
    18:00 +37°C° 0 mm 2 mps 705 mmHg 26%
    19:00 +36°C° 0 mm 2 mps 706 mmHg 27%
    20:00 +35°C° 0 mm 2 mps 706 mmHg 29%
    21:00 +35°C° 0 mm 2 mps 707 mmHg 31%
    22:00 +34°C° 0 mm 2 mps 707 mmHg 32%
    23:00 +33°C° 0 mm 1 mps 707 mmHg 34%
    Show more